Wind_Speed
97 93 80 81 77 77 70 66 67 67 62 55 49 56 64 64 64 60 56 56 54 55 47 48 51 43 46 39 38 39 34 36 37 36 33 32 38 41 40 40 42 42 43 46
98 92 87 86 84 81 75 73 72 70 65 62 60 53 50 47 57 61 63 60 61 57 52 53 53 47 52 44 44 46 38 38 42 40 42 40 42 45 48 45 47 48 49 49
99 92 94 91 88 87 82 78 76 75 67 65 60 55 55 51 43 44 58 63 63 61 59 57 57 52 51 49 50 55 43 44 51 54 49 46 49 47 49 51 53 55 53 54
103 98 96 94 91 90 86 83 83 79 76 72 63 58 58 54 50 46 49 59 68 63 65 66 61 56 58 54 52 55 53 45 54 57 55 53 54 54 51 52 58 59 59 60
103 98 97 95 94 94 90 88 88 83 80 75 70 64 64 61 55 61 57 54 54 57 67 66 65 66 62 59 56 60 60 54 57 54 60 59 62 63 60 56 59 61 63 62
111 105 102 97 98 99 93 92 92 89 88 81 77 70 67 67 69 68 66 64 61 57 56 60 68 66 65 65 67 63 65 67 62 62 60 65 65 67 67 64 61 68 70 72
110 109 106 101 99 98 97 95 95 95 92 80 84 78 67 75 77 76 76 73 70 67 63 60 60 70 72 70 70 70 69 69 66 70 70 68 63 65 72 73 69 69 72 73
114 108 106 104 102 99 97 98 98 97 95 91 90 81 73 78 82 84 82 81 78 75 72 69 64 64 66 70 76 79 81 80 77 75 78 79 74 69 71 74 78 73 76 75
114 113 110 108 106 101 101 102 100 100 101 100 94 86 84 82 87 85 86 84 83 80 78 75 74 72 68 69 71 75 79 79 81 80 78 81 81 81 82 83 81 80 79 82
115 117 115 113 112 109 105 103 102 105 105 103 97 93 90 88 89 91 91 90 89 88 86 83 81 79 77 74 72 72 78 82 81 82 83 85 88 85 89 89 85 86 83 86
118 117 117 115 113 111 110 107 107 107 108 106 101 97 94 91 91 91 93 93 94 96 94 91 89 87 85 82 81 79 77 81 83 85 87 89 87 90 91 92 91 93 93 88
123 122 118 117 118 118 116 114 113 113 111 109 108 95 94 96 96 96 96 97 100 100 101 99 96 94 93 92 91 89 87 85 84 85 88 88 94 93 97 93 98 99 96 92
120 123 123 123 120 118 118 117 115 117 117 115 115 99 100 101 103 104 103 102 102 105 105 104 103 101 98 98 97 97 96 94 93 92 91 91 91 96 99 102 101 99 98 102
124 124 121 117 114 114 115 118 122 126 128 115 117 103 107 109 112 112 111 110 109 110 110 110 110 108 106 106 104 104 102 101 101 101 100 98 96 97 95 98 100 104 104 107
119 118 119 124 123 123 124 126 129 127 117 124 111 114 107 118 117 118 120 119 116 114 113 114 113 111 110 110 110 110 109 109 108 107 108 107 104 103 102 101 102 105 110 112
115 117 122 122 120 123 128 126 123 121 122 128 121 124 117 121 126 128 126 125 121 119 120 120 117 116 117 116 115 116 115 115 114 115 112 110 108 105 105 104 105 107 110 114
114 117 118 117 117 119 123 120 122 120 124 125 129 125 129 127 129 132 130 128 126 125 125 125 124 123 122 122 122 122 121 121 121 120 121 118 113 109 108 107 108 110 112 114
100 104 110 117 119 120 112 117 118 119 121 123 124 123 132 131 133 136 135 132 132 130 129 130 130 131 130 129 128 124 125 124 122 121 122 120 116 112 107 104 105 109 113 116
103 105 109 112 110 110 111 111 112 116 119 120 115 118 123 125 131 125 137 138 133 131 129 129 129 129 131 130 127 122 120 121 120 119 120 117 113 112 109 102 103 100 102 108
92 96 100 99 101 102 103 102 104 109 108 112 116 116 117 119 115 117 120 120 120 120 120 119 118 118 117 118 117 117 116 116 115 117 115 116 114 112 112 108 108 105 101 102
86 88 86 87 88 87 90 93 94 95 99 106 110 112 112 109 104 102 103 104 104 104 104 103 103 103 103 105 102 98 97 97 100 102 101 104 112 113 113 112 109 109 106 104
81 80 80 81 80 81 79 79 85 91 96 95 96 97 97 95 94 92 93 94 87 86 87 87 89 90 88 88 87 85 85 87 89 87 88 90 93 98 105 108 110 114 112 111
77 74 69 70 67 70 73 74 76 81 87 87 83 81 83 85 83 82 82 80 80 80 82 82 83 83 84 86 84 83 84 83 85 85 84 85 87 89 92 95 97 99 104 109
78 72 68 64 61 65 67 68 69 65 71 69 68 65 68 72 76 77 76 75 74 73 75 78 80 82 84 84 85 85 85 86 88 89 89 90 92 92 92 93 94 95 96 96
74 73 72 67 60 64 68 62 54 60 54 58 59 53 53 54 53 56 57 58 61 62 62 64 67 71 74 76 79 82 83 83 86 89 89 91 93 95 95 94 94 92 91 92
78 71 67 63 64 63 62 51 36 45 48 44 48 50 44 36 39 38 39 45 49 49 51 54 59 62 62 63 64 65 65 66 66 68 71 76 80 84 87 88 89 90 89 89
Wind_Direction
221 220 224 228 228 229 230 226 229 230 229 226 226 230 232 233 238 239 242 239 241 239 244 245 247 258 246 261 252 261 272 265 260 271 275 274 279 276 280 284 286 291 289 297
224 219 224 227 229 228 228 226 231 231 230 229 230 228 226 231 235 235 239 241 241 241 240 245 246 249 245 253 248 253 269 260 256 270 276 271 275 277 279 281 285 285 288 295
225 226 226 227 228 230 232 231 233 234 233 231 233 238 236 236 239 237 236 239 240 243 245 243 244 243 246 251 246 249 265 261 260 264 272 274 272 274 279 279 282 284 284 290
224 225 226 228 229 230 233 233 234 234 235 235 237 239 240 241 239 245 242 240 238 239 244 250 249 243 245 247 250 251 256 258 258 260 263 271 274 276 277 281 280 281 282 288
225 227 228 230 230 231 230 235 235 237 236 235 237 237 246 243 243 241 248 247 247 245 242 247 249 250 251 254 251 252 251 259 254 258 266 270 274 275 274 276 278 278 282 285
222 225 227 230 232 232 230 234 236 238 238 236 238 237 242 249 249 249 252 252 252 253 253 247 245 251 253 254 254 252 252 256 257 250 258 269 271 273 276 272 276 276 280 282
225 226 227 230 232 233 233 234 237 238 239 238 241 240 236 252 252 252 255 256 256 256 256 255 254 247 250 255 256 251 253 258 260 254 254 259 266 275 277 270 273 273 279 281
227 229 231 232 235 236 236 237 238 241 242 241 241 241 240 245 255 255 255 258 260 260 258 259 259 261 257 255 256 254 257 258 259 256 259 258 262 262 266 269 271 276 275 277
228 229 230 232 234 237 238 238 240 242 242 242 241 242 243 242 251 256 259 259 260 261 262 262 263 263 265 265 263 259 260 261 259 256 258 259 263 260 265 267 269 271 276 277
227 230 230 233 234 236 239 240 241 243 244 244 244 243 244 246 247 254 257 260 262 262 262 263 264 265 263 262 265 265 264 262 261 260 263 260 261 264 262 266 270 272 273 276
229 231 231 233 234 237 239 241 243 244 245 245 245 246 246 247 248 250 255 258 260 262 265 265 264 265 266 267 266 267 267 269 268 265 265 265 265 262 265 265 265 269 271 273
229 231 234 235 235 237 239 241 242 244 245 247 247 247 251 252 251 251 251 256 259 260 262 264 265 266 267 268 268 269 268 268 270 270 268 267 266 264 265 265 265 269 267 269
227 229 231 233 235 238 240 243 245 246 247 249 250 248 253 254 253 252 251 250 256 259 261 262 265 267 268 270 271 272 272 271 271 270 273 272 268 269 266 269 270 270 266 267
227 228 230 232 235 238 240 242 243 245 245 248 251 253 253 254 254 254 254 254 252 255 259 261 262 264 265 267 269 271 272 273 274 275 275 273 272 271 272 271 271 265 267 267
229 230 231 231 233 236 240 241 243 246 248 249 252 251 255 254 253 255 254 254 255 255 256 260 263 264 267 269 271 272 272 273 273 275 276 275 274 273 271 269 267 268 267 268
230 232 231 233 236 237 239 240 243 246 248 250 251 253 252 255 257 254 256 258 258 258 258 259 261 264 266 268 271 272 272 273 274 274 274 275 274 273 272 271 268 266 267 267
231 235 237 237 238 239 241 243 245 248 249 251 252 253 254 256 257 259 258 257 258 260 260 261 262 263 265 267 268 270 271 273 275 275 274 275 274 272 272 271 269 267 266 267
227 231 234 237 238 241 243 244 246 248 249 252 254 257 257 258 258 258 260 261 260 261 263 264 265 265 266 268 268 269 270 270 270 271 272 274 273 271 270 270 270 269 266 267
228 231 233 236 240 243 247 249 252 252 253 255 258 259 260 260 259 262 262 263 266 269 269 270 269 270 270 270 269 268 267 267 266 267 268 269 271 270 267 268 270 270 270 271
235 237 239 241 244 247 249 253 256 257 257 258 258 259 260 262 263 263 266 267 268 268 268 268 268 267 267 268 269 269 267 266 266 266 266 267 267 269 269 266 267 269 271 269
236 238 242 245 248 250 252 253 255 258 259 257 258 259 262 265 268 268 268 268 267 266 266 267 267 269 270 271 270 272 273 273 271 271 271 270 267 268 269 268 267 268 269 271
237 239 242 244 245 247 252 253 253 253 257 261 263 265 266 267 268 268 267 267 269 269 268 267 268 266 265 265 264 262 263 265 267 267 267 267 266 266 266 267 269 269 270 271
237 241 243 246 246 242 246 249 254 255 256 260 264 266 266 266 266 265 264 264 263 262 261 261 261 260 259 259 260 261 262 264 265 265 266 267 268 268 267 268 269 270 272 273
235 239 238 241 241 240 242 246 251 256 256 258 262 264 265 265 262 260 258 257 259 261 262 261 260 261 260 261 261 262 263 263 264 264 265 265 264 266 267 267 267 267 268 269
238 242 241 239 241 238 237 244 258 254 259 260 260 262 261 262 265 267 267 267 266 266 266 267 267 267 267 268 269 269 269 270 272 271 270 268 267 268 270 271 272 272 271 271
244 248 245 252 245 244 248 241 256 254 252 255 265 260 259 266 268 271 276 275 272 271 272 273 272 271 270 270 271 273 274 274 274 275 273 273 272 270 271 272 272 273 274 273
Height
10677 10696 10718 10721 10726 10728 10739 10749 10750 10756 10768 10773 10776 10783 10791 10797 10801 10806 10810 10815 10819 10821 10828 10830 10833 10835 10837 10839 10842 10844 10845 10846 10848 10849 10849 10849 10849 10846 10845 10844 10842 10841 10838 10837
10670 10696 10697 10699 10707 10716 10727 10734 10740 10747 10759 10764 10768 10775 10783 10786 10790 10795 10800 10804 10807 10812 10815 10818 10822 10824 10826 10828 10831 10834 10836 10838 10839 10840 10841 10840 10841 10838 10838 10836 10834 10832 10830 10828
10661 10674 10677 10688 10696 10705 10716 10723 10726 10735 10747 10754 10761 10769 10773 10779 10782 10785 10788 10791 10795 10797 10802 10806 10810 10812 10815 10818 10821 10824 10827 10830 10831 10832 10832 10831 10831 10831 10830 10830 10827 10823 10821 10820
10634 10647 10664 10674 10683 10689 10701 10708 10712 10722 10732 10742 10753 10762 10767 10769 10775 10775 10773 10779 10783 10787 10791 10794 10797 10801 10802 10806 10811 10814 10817 10819 10821 10822 10821 10821 10821 10821 10820 10820 10818 10814 10812 10810
10629 10643 10652 10661 10672 10674 10688 10693 10700 10711 10719 10732 10742 10752 10754 10760 10768 10759 10762 10768 10771 10774 10779 10783 10785 10787 10792 10798 10799 10801 10804 10807 10808 10812 10813 10812 10810 10810 10810 10809 10807 10804 10801 10798
10601 10618 10628 10644 10648 10658 10677 10681 10686 10692 10702 10720 10728 10742 10753 10750 10747 10749 10752 10756 10759 10762 10765 10769 10774 10779 10782 10785 10788 10790 10793 10793 10796 10798 10800 10801 10800 10799 10799 10797 10796 10793 10790 10786
10600 10609 10622 10627 10635 10647 10663 10670 10672 10679 10689 10720 10717 10729 10753 10733 10733 10735 10736 10740 10744 10748 10753 10758 10764 10767 10771 10775 10776 10778 10781 10781 10783 10786 10786 10785 10785 10786 10787 10784 10784 10780 10777 10774
10581 10603 10617 10627 10631 10645 10652 10653 10662 10666 10678 10691 10699 10721 10735 10731 10716 10715 10722 10726 10732 10735 10742 10747 10751 10755 10757 10760 10762 10764 10766 10767 10768 10771 10771 10772 10771 10770 10770 10767 10767 10767 10762 10759
10576 10584 10593 10603 10612 10623 10630 10637 10647 10653 10660 10667 10687 10704 10710 10717 10707 10706 10707 10714 10716 10723 10729 10732 10735 10739 10742 10745 10747 10749 10751 10751 10752 10754 10756 10757 10756 10754 10753 10751 10752 10749 10747 10743
10555 10566 10575 10584 10596 10602 10612 10619 10625 10628 10639 10652 10674 10686 10697 10699 10701 10693 10695 10699 10701 10705 10709 10716 10719 10724 10728 10731 10731 10732 10732 10734 10735 10738 10740 10740 10740 10739 10738 10737 10734 10733 10730 10727
10541 10548 10561 10568 10584 10593 10596 10606 10611 10617 10620 10636 10654 10666 10675 10683 10684 10686 10682 10684 10686 10685 10691 10697 10700 10705 10711 10714 10715 10715 10715 10715 10717 10718 10719 10722 10722 10721 10722 10720 10716 10713 10713 10708
10523 10535 10547 10557 10561 10569 10578 10584 10587 10592 10604 10614 10628 10661 10665 10665 10665 10667 10671 10667 10667 10671 10675 10676 10680 10685 10690 10694 10697 10698 10700 10700 10700 10698 10698 10702 10702 10701 10701 10700 10699 10695 10693 10690
10508 10508 10518 10528 10542 10557 10567 10571 10579 10577 10585 10600 10605 10648 10638 10640 10642 10644 10649 10655 10654 10653 10656 10661 10663 10667 10670 10671 10674 10676 10677 10679 10679 10680 10679 10680 10681 10677 10678 10677 10675 10672 10671 10669
10477 10489 10505 10523 10537 10533 10541 10548 10549 10547 10555 10596 10590 10624 10624 10618 10616 10621 10626 10633 10638 10638 10639 10642 10644 10647 10648 10648 10651 10653 10656 10657 10658 10656 10656 10657 10656 10654 10654 10653 10651 10649 10647 10646
10460 10477 10489 10491 10508 10518 10520 10521 10527 10541 10576 10560 10588 10585 10586 10586 10593 10596 10599 10604 10612 10620 10625 10626 10626 10627 10627 10628 10630 10631 10634 10634 10634 10634 10632 10629 10630 10630 10629 10627 10626 10624 10623 10621
10450 10456 10465 10477 10483 10490 10498 10504 10520 10535 10543 10539 10562 10558 10547 10563 10567 10573 10579 10586 10597 10600 10599 10604 10609 10612 10611 10610 10608 10607 10606 10606 10606 10605 10606 10606 10603 10602 10601 10602 10600 10600 10599 10596
10438 10446 10454 10459 10462 10468 10478 10509 10508 10516 10512 10526 10532 10542 10526 10543 10543 10544 10554 10563 10570 10571 10575 10580 10585 10589 10589 10591 10589 10586 10585 10584 10581 10580 10575 10576 10578 10578 10577 10576 10575 10574 10572 10570
10409 10420 10427 10431 10439 10448 10483 10483 10487 10489 10492 10500 10508 10512 10505 10513 10517 10524 10521 10535 10544 10552 10555 10556 10560 10561 10563 10561 10563 10565 10562 10561 10557 10551 10546 10548 10550 10553 10552 10551 10549 10548 10546 10545
10393 10403 10411 10419 10435 10445 10457 10466 10472 10472 10480 10480 10486 10483 10481 10483 10491 10503 10493 10510 10521 10525 10528 10527 10528 10526 10525 10528 10531 10534 10534 10532 10529 10528 10526 10526 10526 10525 10525 10526 10525 10524 10522 10520
10390 10399 10409 10422 10429 10439 10443 10447 10448 10450 10460 10456 10455 10456 10457 10462 10476 10476 10481 10486 10491 10494 10493 10492 10493 10495 10497 10494 10495 10496 10499 10500 10499 10501 10500 10501 10501 10499 10499 10501 10501 10501 10497 10497
10381 10391 10401 10408 10420 10429 10430 10432 10432 10432 10429 10424 10426 10435 10443 10449 10456 10458 10458 10456 10458 10461 10462 10464 10466 10467 10467 10466 10465 10465 10466 10468 10471 10472 10473 10473 10473 10473 10471 10473 10474 10473 10472 10470
10370 10378 10388 10396 10405 10413 10418 10415 10412 10402 10402 10412 10418 10423 10427 10431 10431 10432 10432 10433 10434 10436 10439 10438 10438 10440 10442 10441 10440 10440 10441 10442 10442 10442 10442 10443 10443 10444 10445 10444 10444 10444 10445 10444
10356 10370 10380 10386 10395 10396 10393 10396 10394 10392 10392 10397 10402 10404 10406 10408 10409 10410 10411 10411 10412 10412 10413 10413 10414 10413 10413 10415 10417 10419 10419 10419 10419 10419 10419 10417 10418 10420 10418 10419 10418 10418 10417 10416
10343 10352 10363 10368 10376 10382 10380 10379 10381 10376 10378 10385 10388 10388 10389 10389 10388 10388 10390 10391 10391 10390 10390 10392 10393 10394 10394 10395 10395 10395 10396 10397 10397 10396 10397 10397 10397 10395 10395 10396 10395 10393 10391 10388
10329 10333 10346 10354 10360 10363 10370 10365 10363 10365 10370 10374 10373 10372 10370 10371 10371 10372 10373 10374 10375 10375 10376 10375 10375 10375 10376 10377 10377 10377 10377 10378 10378 10377 10377 10377 10376 10374 10374 10372 10370 10368 10366 10363
10313 10322 10328 10341 10340 10340 10344 10349 10354 10356 10358 10359 10359 10358 10358 10359 10360 10360 10359 10359 10360 10360 10361 10359 10358 10357 10357 10357 10357 10356 10356 10356 10356 10356 10355 10354 10353 10351 10351 10349 10348 10345 10344 10339